Startpagina
METAR-TAF:

METAR-TAF

Vliegvelden :

Vlissingen, Nederland

breedte: 51-27N, lengte: 3-36E, hoogte: 10 m

Actueel weer

Dit bericht is 31 minuten geleden gemaakt, om 14:55 UTC
Wind 10 kt uit het westen, variërend tussen het zuidwesten en het noordwesten
Temperatuur 19°C
Vochtigheid 88%
Druk 1010 hPa
Zicht 10 km of meer

METAR: EHFS 261455Z AUTO 27010KT 230V320 9999 FEW008/// SCT009/// OVC010/// 19/17 Q1010

Tijdstip: 17:26 (15:26 UTC)


TAF: ontbreekt

Waarnemingen en weersverwachtingen van meer dan 4000 vliegvelden (METAR en TAF).

De beschikbare stations zijn de gele en rode punten op de kaart.

Ga met uw muis naar het station om de naam te zien.

Klik dan om waarnemingen en weersverwachtingen te zien.

kaart wijzigen: klik op de groene knoppen met een zwart kruis om in te zoomen, op de groene knop met een streepje om uit te zoomen of op de groene pijlen voor aangrenzende kaarten.


METAR-TAF: